Kassel Calden, Germany

5:41 PM CEST on May 21, 2018 (GMT +0200)
Calden

Weather History for EDVK - September, 2013

Change the Weather History Date:

Saturday, September 28, 2013

  Actual Average Record
Temperature  
Mean Temperature 46 °F -  
Max Temperature 60 °F 59 °F 69 °F (2011)
Min Temperature 32 °F 49 °F 32 °F (2013)
Degree Days  
Heating Degree Days 19    
Moisture  
Dew Point 38 °F    
Average Humidity 67    
Maximum Humidity 100    
Minimum Humidity 35    
Precipitation  
Precipitation 0.00 in - - ()
Sea Level Pressure  
Sea Level Pressure 29.98 in    
Wind  
Wind Speed 5 mph ()    
Max Wind Speed 13 mph    
Max Gust Speed -    
Visibility 0.4 miles    
Events Fog    
Averages and records for this station are not official NWS values.
T = Trace of Precipitation, MM = Missing Value Source: Averaged Metar Reports

Daily Weather History Graph

Daily Weather History Graph

Search for Another Location

Airport or City:

Astronomy

Sep. 28, 2013 Rise Set
Actual Time 7:18 AM CEST 7:06 PM CEST
Civil Twilight 6:45 AM CEST 7:40 PM CEST
Nautical Twilight 6:06 AM CEST 8:18 PM CEST
Astronomical Twilight 5:26 AM CEST 8:58 PM CEST
Moon 12:14 AM CEST (9/28) 3:48 PM CEST (9/28)
Length of Visible Light 12h 54m
Length of Day
11h 48m
Last Quarter, 38% of the Moon is Illuminated
Sep 28
Last Quarter
Oct 5
New
Oct 12
First Quarter
Oct 19
Full
Oct 27
Last Quarter

Hourly Weather History & Observations

Time (CEST) Temp. Dew Point Humidity Pressure Visibility Wind Dir Wind Speed Gust Speed Precip Events Conditions
5:50 AM 35.6 °F 33.8 °F 93% 30.01 in 1.2 mi Variable 1.2 mph - N/A Fog Patches of Fog
6:20 AM 35.6 °F 33.8 °F 93% 30.01 in 0.3 mi WSW 1.2 mph - N/A Fog Fog
6:50 AM 33.8 °F 32.0 °F 93% 30.01 in 0.2 mi Variable 1.2 mph - N/A Fog Fog
7:20 AM 33.8 °F 32.0 °F 93% 30.01 in 0.2 mi ENE 2.3 mph - N/A Fog Fog
7:50 AM 32.0 °F 32.0 °F 100% 30.01 in 0.2 mi Variable 1.2 mph - N/A Fog Fog
8:20 AM 33.8 °F 32.0 °F 93% 30.01 in 0.4 mi Variable 1.2 mph - N/A Fog Fog
8:50 AM 35.6 °F 35.6 °F 100% 30.01 in 0.3 mi Variable 1.2 mph - N/A Fog Fog
9:20 AM 39.2 °F 37.4 °F 93% 30.01 in - Variable 1.2 mph - N/A   Clear
9:50 AM 42.8 °F 39.2 °F 87% 30.01 in - Variable 1.2 mph - N/A   Clear
10:20 AM 48.2 °F 41.0 °F 76% 30.01 in - East 3.5 mph - N/A   Clear
10:50 AM 50.0 °F 41.0 °F 71% 30.01 in - East 4.6 mph - N/A   Clear
11:20 AM 51.8 °F 41.0 °F 67% 30.01 in - ENE 4.6 mph - N/A   Clear
11:50 AM 53.6 °F 41.0 °F 62% 30.01 in - East 9.2 mph - N/A   Clear
12:20 PM 55.4 °F 41.0 °F 58% 29.98 in - ESE 9.2 mph - N/A   Clear
12:50 PM 57.2 °F 42.8 °F 59% 29.98 in - East 9.2 mph - N/A   Clear
1:20 PM 57.2 °F 41.0 °F 55% 29.98 in - East 11.5 mph - N/A   Clear
1:50 PM 57.2 °F 42.8 °F 59% 29.98 in - East 10.4 mph - N/A   Clear
2:20 PM 59.0 °F 39.2 °F 48% 29.98 in - East 10.4 mph - N/A   Clear
2:50 PM 59.0 °F 39.2 °F 48% 29.98 in - East 12.7 mph - N/A   Clear
3:20 PM 59.0 °F 39.2 °F 48% 29.95 in - East 11.5 mph - N/A   Clear
3:50 PM 59.0 °F 39.2 °F 48% 29.95 in - East 11.5 mph - N/A   Clear
4:20 PM 60.8 °F 37.4 °F 42% 29.95 in - East 12.7 mph - N/A   Clear
4:50 PM 59.0 °F 37.4 °F 45% 29.95 in - East 12.7 mph - N/A   Clear
5:20 PM 59.0 °F 37.4 °F 45% 29.95 in - East 12.7 mph - N/A   Clear
5:50 PM 59.0 °F 39.2 °F 48% 29.92 in - East 12.7 mph - N/A   Clear
6:20 PM 59.0 °F 41.0 °F 51% 29.92 in - East 9.2 mph - N/A   Clear
6:50 PM 55.4 °F 41.0 °F 58% 29.92 in - ENE 6.9 mph - N/A   Clear
7:20 PM 53.6 °F 42.8 °F 67% 29.95 in - ENE 6.9 mph - N/A   Clear
7:50 PM 51.8 °F 41.0 °F 67% 29.95 in - ENE 9.2 mph - N/A   Clear
8:20 PM 50.0 °F 41.0 °F 71% 29.95 in - ENE 8.1 mph - N/A   Clear
8:50 PM 51.8 °F 24.8 °F 35% 29.95 in - East 6.9 mph - N/A   Clear
9:20 PM 51.8 °F 41.0 °F 67% 29.95 in - East 8.1 mph - N/A   Clear
9:50 PM 50.0 °F 41.0 °F 71% 29.95 in - East 6.9 mph - N/A   Clear
10:20 PM 50.0 °F 41.0 °F 71% 29.95 in - East 6.9 mph - N/A   Clear